CZ-6A DEB

Satellite information

Favourite Embed

Satellite Type and Status

DEBRISIN ORBIT

Key statistics

Satellite CZ-6A DEB at a glance.

Uptime

1129

Days in orbit

Revolutions

≈ 14.3

Per day

Orbit

SSO

Sun Synchronous Orbit

Inclination

98.8

Latest

Satellite identification and parameters

Extended collection of information and parameters for CZ-6A DEB.

Object identification

Identified? True

Debris? True

Object name: CZ-6A DEB

International designator: 2022-151VC

Object number (NORAD): 55187

Object ID (CCSDS): 55187

Country: PEOPLES REPUBLIC OF CHINA (PRC)

Current information (Y/N): Y

RCS size: SMALL

Orbital parameters

Period: 100.646 minutes

Inclination: 98.809 deg

SMA: 7167.323 km

Apoapsis: 836.817 km

Periapsis: 741.559 km

RAAN: 0.7623 deg

Eccentricy: 0.0066453

Argument of periapsis: 152.3874 deg

Mean anomaly: 208.0863 deg

Mean motion: 14.30761615 rev/day

Mean motion (dot): 0.0001075 rev/day2

B* drag term: 0.0040184 1/REarth

Two-line elements (TLE)

Creation date: Dec. 12, 2025, 7:16 a.m.

Reference frame: TEME

Reference center: EARTH

Epoch: Dec. 12, 2025, 12:30 a.m. UTC

TLE line 0: 0 CZ-6A DEB

TLE line 1: 1 55187U 22151VC 25346.02124852 .00010750 00000-0 40184-2 0 9993

TLE line 2: 2 55187 98.8090 0.7623 0066453 152.3874 208.0863 14.30761615156827

Live tracking on map

Real-time ground track for satellite CZ-6A DEB.

In-orbit conjunctions

A list of the most updated potential collisions computed for object CZ-6A DEB.

Target Orbit TCA Probability of collision Miss distance Type
SL-8 R/B LEO 2025-07-09 03:51:51 0.0001393743 743.0 (m) ROCKET BODY
IRIDIUM 33 DEB LEO 2024-12-26 03:28:35 0.0002274857 49.0 (m) DEBRIS

Associated space launch

Chinese satellite reported for atmospheric/ocean/environmental/spatial parameter research purposes, details TBD.

CZ-6A DEB was lifted into orbit during the mission ‘Long March 6A | Yunhai 3’, on board a Long March 6A space rocket.

The launch took place on Nov. 11, 2022, 10:52 p.m. from Launch Complex 9A.

For more information about the launch, click the button.

Launch to space Long March 6A | Yunhai 3
Long March 6A | Yunhai 3

Agency: N/A

Status: Launch Successful

Launch date: Nov. 11, 2022, 10:52 p.m. UTC

Rocket: Long March 6A

Launch pad: Launch Complex 9A

Location: Taiyuan Satellite Launch Center, People's Republic of China

...

Latest news about this satellite

There are no fresh news available about this satellite. Check back as we update our databases every day.


Newsletter sign-up

Weekly statistics, charts and insights to help you stay on top of the space industry.